Weather in Qaanaaq

Greenland     77°29′11″N   69°19′23″W
temp.,
°C
wind,
m/s
gust,
m/s
humid.,
%
clouds,
%
prec.,
mm/h
press.,
hPa
HPBL,
m
9 march, tue
tue900:00−22ne334990 0.0 100620
03:00−22nne345082 0.0 100520
06:00−22nne44485 0.0 100520
09:00−22nne444414 0.0 100520
12:00−19nne335347 0.0 100525
15:00−18nne226267 0.0 100522
18:00−17nne226988 0.0 100520
21:00−17nne227594 0.0 100520
10 march, wed
wed1000:00−17nne227572 0.0 100520
03:00−18ne127980 0.0 100420
06:00−19nne227668 0.0 100420
09:00−18ne237734 0.0 100320
12:00−17ne23740 0.0 100220
15:00−17ne23750 0.0 100120
18:00−17ne23770 0.0 100120
21:00−17ne23759 0.0 100020
11 march, thu
thu1100:00−18ne337426 0.0 99920
03:00−17ne227358 0.0 99920
06:00−18ne237223 0.0 99820
09:00−18ne226928 0.0 99820
12:00−18ne226861 0.0 99820
15:00−18nne116649 0.0 99720
18:00−19n116424 0.0 99820
21:00−19ne126527 0.0 99820
12 march, fri
fri1200:00−20ne226622 0.0 99720
03:00−20ne226644 0.0 99820
06:00−20ne226880 0.0 99920
09:00−19nne117086 0.0 100120
12:00−19ne117090 0.0 100220
15:00−19n116758 0.0 100420
18:00−21nne116518 0.0 100620
21:00−21n12609 0.0 100720
13 march, sat
sat1300:00−22ne23580 0.0 100820
03:00−23ne33560 0.0 100820
06:00−23ne33520 0.0 100920
09:00−24nne33540 0.0 100920
12:00−24ne22590 0.0 100820
15:00−24nnw11620 0.0 100820
18:00−24nnw22630 0.0 100720
21:00−24n33600 0.0 100620